TimeCDT,TemperatureF,Dew PointF,Humidity,Sea Level PressureIn,VisibilityMPH,Wind Direction,Wind SpeedMPH,Gust SpeedMPH,PrecipitationIn,Events,Conditions,WindDirDegrees,DateUTC
12:15 AM,66.2,59.0,78,29.93,10.0,South,3.5,-,N/A,,Overcast,180,2013-08-02 05:15:00
12:55 AM,68.0,57.2,68,29.93,10.0,Calm,Calm,-,N/A,,Partly Cloudy,0,2013-08-02 05:55:00
1:15 AM,64.4,57.2,77,29.92,10.0,East,4.6,-,N/A,,Clear,90,2013-08-02 06:15:00
1:55 AM,62.6,57.2,82,29.91,10.0,SE,3.5,-,N/A,,Partly Cloudy,140,2013-08-02 06:55:00
2:35 AM,64.4,60.8,88,29.90,10.0,Calm,Calm,-,N/A,,Mostly Cloudy,0,2013-08-02 07:35:00
2:55 AM,64.4,60.8,88,29.89,10.0,Calm,Calm,-,N/A,,Overcast,0,2013-08-02 07:55:00
3:15 AM,66.2,60.8,83,29.89,10.0,West,3.5,-,N/A,,Overcast,270,2013-08-02 08:15:00
3:35 AM,66.2,60.8,83,29.89,10.0,Calm,Calm,-,N/A,,Overcast,0,2013-08-02 08:35:00
3:55 AM,66.2,60.8,83,29.89,10.0,Calm,Calm,-,N/A,,Mostly Cloudy,0,2013-08-02 08:55:00
4:15 AM,66.2,60.8,83,29.89,10.0,Calm,Calm,-,N/A,,Mostly Cloudy,0,2013-08-02 09:15:00
4:35 AM,66.2,60.8,83,29.89,10.0,Calm,Calm,-,N/A,,Overcast,0,2013-08-02 09:35:00
4:55 AM,66.2,60.8,83,29.89,10.0,Calm,Calm,-,N/A,,Overcast,0,2013-08-02 09:55:00
5:15 AM,68.0,60.8,78,29.89,10.0,Calm,Calm,-,N/A,,Overcast,0,2013-08-02 10:15:00
6:15 AM,68.0,62.6,83,29.89,10.0,West,6.9,-,N/A,,Mostly Cloudy,260,2013-08-02 11:15:00
6:35 AM,69.8,62.6,78,29.89,10.0,WSW,8.1,-,N/A,,Mostly Cloudy,250,2013-08-02 11:35:00
6:55 AM,69.8,62.6,78,29.89,10.0,WSW,8.1,-,N/A,Thunderstorm,Mostly Cloudy,250,2013-08-02 11:55:00
7:15 AM,69.8,62.6,78,29.90,10.0,West,4.6,-,N/A,,Partly Cloudy,260,2013-08-02 12:15:00
7:35 AM,69.8,62.6,78,29.90,10.0,WSW,6.9,-,N/A,,Mostly Cloudy,250,2013-08-02 12:35:00
7:55 AM,71.6,64.4,78,29.90,10.0,West,6.9,-,N/A,,Mostly Cloudy,260,2013-08-02 12:55:00
8:15 AM,71.6,64.4,78,29.90,10.0,West,8.1,-,N/A,,Scattered Clouds,260,2013-08-02 13:15:00
8:35 AM,73.4,64.4,73,29.90,10.0,West,8.1,-,N/A,,Clear,260,2013-08-02 13:35:00
8:55 AM,75.2,66.2,73,29.89,10.0,West,6.9,-,N/A,,Clear,260,2013-08-02 13:55:00
9:15 AM,78.8,66.2,65,29.89,10.0,West,11.5,-,N/A,,Clear,260,2013-08-02 14:15:00
9:35 AM,78.8,66.2,65,29.89,10.0,West,11.5,-,N/A,,Clear,280,2013-08-02 14:35:00
9:55 AM,80.6,66.2,61,29.89,10.0,West,10.4,-,N/A,,Clear,280,2013-08-02 14:55:00
10:15 AM,80.6,66.2,61,29.89,10.0,WNW,12.7,-,N/A,,Clear,300,2013-08-02 15:15:00
10:35 AM,82.4,66.2,58,29.89,10.0,WNW,10.4,-,N/A,,Clear,290,2013-08-02 15:35:00
10:55 AM,82.4,66.2,58,29.89,10.0,WNW,12.7,17.3,N/A,,Clear,290,2013-08-02 15:55:00
11:15 AM,82.4,68.0,62,29.88,10.0,WNW,8.1,-,N/A,,Clear,300,2013-08-02 16:15:00
11:35 AM,84.2,68.0,58,29.89,10.0,West,10.4,-,N/A,,Clear,280,2013-08-02 16:35:00
11:55 AM,84.2,68.0,58,29.89,10.0,WNW,10.4,-,N/A,,Partly Cloudy,290,2013-08-02 16:55:00
12:15 PM,84.2,68.0,58,29.89,10.0,West,6.9,-,N/A,,Partly Cloudy,280,2013-08-02 17:15:00
12:35 PM,86.0,68.0,55,29.90,10.0,West,10.4,-,N/A,,Scattered Clouds,270,2013-08-02 17:35:00
1:15 PM,87.8,66.2,49,29.89,10.0,WNW,11.5,17.3,N/A,,Partly Cloudy,290,2013-08-02 18:15:00
1:35 PM,87.8,66.2,49,29.89,10.0,West,9.2,-,N/A,,Clear,260,2013-08-02 18:35:00
1:55 PM,84.2,66.2,55,29.89,10.0,WNW,8.1,16.1,N/A,,Mostly Cloudy,300,2013-08-02 18:55:00
2:15 PM,87.8,66.2,49,29.89,10.0,NW,12.7,-,N/A,,Mostly Cloudy,310,2013-08-02 19:15:00
2:35 PM,86.0,66.2,51,29.89,10.0,WNW,15.0,-,N/A,,Scattered Clouds,300,2013-08-02 19:35:00
2:55 PM,87.8,66.2,49,29.89,10.0,West,12.7,17.3,N/A,,Scattered Clouds,270,2013-08-02 19:55:00
3:15 PM,87.8,66.2,49,29.88,10.0,NW,13.8,17.3,N/A,,Partly Cloudy,310,2013-08-02 20:15:00
3:35 PM,87.8,66.2,49,29.88,10.0,West,13.8,-,N/A,,Partly Cloudy,270,2013-08-02 20:35:00
3:55 PM,86.0,66.2,51,29.88,10.0,NW,8.1,-,N/A,,Partly Cloudy,310,2013-08-02 20:55:00
4:15 PM,87.8,66.2,49,29.87,10.0,WNW,8.1,-,N/A,,Scattered Clouds,300,2013-08-02 21:15:00
4:35 PM,86.0,66.2,51,29.87,10.0,NNW,8.1,-,N/A,,Partly Cloudy,330,2013-08-02 21:35:00
4:55 PM,86.0,64.4,48,29.87,10.0,WNW,8.1,-,N/A,,Clear,300,2013-08-02 21:55:00
5:15 PM,84.2,66.2,55,29.87,10.0,NW,11.5,-,N/A,,Clear,320,2013-08-02 22:15:00
5:35 PM,82.4,64.4,54,29.88,10.0,NNW,9.2,-,N/A,,Partly Cloudy,330,2013-08-02 22:35:00
5:55 PM,82.4,64.4,54,29.89,10.0,NNW,11.5,-,N/A,,Mostly Cloudy,330,2013-08-02 22:55:00
6:15 PM,80.6,66.2,61,29.88,10.0,NNW,11.5,-,N/A,,Mostly Cloudy,330,2013-08-02 23:15:00
6:35 PM,80.6,64.4,58,29.89,10.0,NNW,6.9,-,N/A,,Partly Cloudy,340,2013-08-02 23:35:00
6:55 PM,78.8,64.4,61,29.90,10.0,North,8.1,-,N/A,,Partly Cloudy,350,2013-08-02 23:55:00
7:15 PM,78.8,64.4,61,29.90,10.0,North,11.5,-,N/A,,Mostly Cloudy,360,2013-08-03 00:15:00
7:35 PM,78.8,62.6,57,29.91,10.0,North,9.2,18.4,N/A,,Scattered Clouds,360,2013-08-03 00:35:00
7:55 PM,77.0,60.8,57,29.92,10.0,North,10.4,18.4,N/A,,Mostly Cloudy,350,2013-08-03 00:55:00
8:15 PM,75.2,60.8,61,29.93,10.0,North,15.0,-,N/A,,Mostly Cloudy,350,2013-08-03 01:15:00
8:35 PM,73.4,59.0,61,29.94,10.0,North,12.7,-,N/A,,Mostly Cloudy,350,2013-08-03 01:35:00
8:55 PM,73.4,59.0,61,29.94,10.0,North,11.5,-,N/A,,Mostly Cloudy,350,2013-08-03 01:55:00
9:15 PM,71.6,59.0,64,29.94,10.0,North,8.1,-,N/A,,Mostly Cloudy,350,2013-08-03 02:15:00
9:35 PM,69.8,60.8,73,29.95,10.0,North,6.9,-,N/A,,Mostly Cloudy,360,2013-08-03 02:35:00
9:55 PM,69.8,60.8,73,29.95,10.0,Calm,Calm,-,N/A,,Scattered Clouds,0,2013-08-03 02:55:00
10:15 PM,69.8,62.6,78,29.95,10.0,NNW,3.5,-,N/A,,Mostly Cloudy,340,2013-08-03 03:15:00
10:35 PM,69.8,62.6,78,29.96,10.0,Calm,Calm,-,N/A,,Overcast,0,2013-08-03 03:35:00
10:55 PM,69.8,62.6,78,29.97,10.0,Calm,Calm,-,N/A,,Overcast,0,2013-08-03 03:55:00
11:15 PM,69.8,62.6,78,29.96,10.0,Calm,Calm,-,N/A,,Mostly Cloudy,0,2013-08-03 04:15:00
11:35 PM,68.0,62.6,83,29.97,10.0,Calm,Calm,-,N/A,,Mostly Cloudy,0,2013-08-03 04:35:00
11:55 PM,66.2,60.8,83,29.98,10.0,Calm,Calm,-,N/A,,Mostly Cloudy,0,2013-08-03 04:55:00